Location: East Rancho Dominguez
(33.8981°N, 118.1954°W)
Time: 14:41:48
(UTC+00:00)

Daily predictions for brighter satellites

Satellite Brightness Start Highest point End
(mag) Time Altitude Azimuth Time Altitude Azimuth Time Altitude Azimuth
ATLAS 5 CENTAUR R/B 3.4 12:20:01 21° SE 12:21:00 24° ESE 12:24:09 10° ENE
Cosmos 1867 4.2 12:24:57 46° S 12:24:57 46° S 12:28:48 10° SSE
Cosmos 1241 Rocket 4.2 12:25:05 78° NW 12:25:33 87° WSW 12:31:45 10° SSE
Meteor 2-13 Rocket 4.3 12:22:50 10° S 12:28:57 88° W 12:35:04 10° N
BREEZE-M DEB 4.3 12:31:18 30° E 12:31:18 30° E 12:34:17 10° ENE
CENTAUR R/B 4.5 12:40:23 14° N 12:40:23 14° N 12:41:58 10° N
Hubble Space Telescope 3.4 12:43:46 10° S 12:43:46 10° S 12:43:49 10° S
H-2A R/B 3.1 12:42:12 48° NE 12:42:56 60° E 12:46:41 10° S
COSMO-SKYMED 1 4.0 12:40:41 10° SE 12:44:37 35° ENE 12:48:35 10° N
Meteor 1-31 Rocket 3.9 12:41:21 10° NNE 12:45:06 44° E 12:48:50 10° S
Envisat 3.1 12:43:30 10° NNE 12:48:35 75° ESE 12:53:38 10° S
MOS 1-B Rocket 4.1 12:43:04 10° SSE 12:49:31 75° ENE 12:55:16 10° N
Cosmos 1174 4.3 12:51:49 40° ESE 12:51:53 40° ESE 12:54:42 10° NE
Cosmos 2263 4.5 12:55:11 44° NW 12:55:11 44° NW 13:00:14 10° N
CZ-4B R/B 4.3 12:53:39 10° NNE 12:58:08 73° ESE 13:02:31 10° S
Cosmos 2369 Rocket 3.7 13:03:39 19° NNW 13:03:39 19° NNW 13:05:41 10° N
Cosmos 1656 Rocket 4.3 13:05:31 32° NW 13:05:31 32° NW 13:09:27 10° N
ATLAS 3B R/B 2.9 13:00:58 10° SSW 13:07:20 67° ESE 13:13:58 10° NE
Landsat 5 4.4 13:04:45 10° SSE 13:09:07 51° ENE 13:13:27 10° N
DELTA 2 R/B (1) 4.0 13:10:34 33° NW 13:12:32 47° N 13:17:54 10° ENE
SJ 16-02 1.7 13:09:12 10° S 13:13:31 65° ESE 13:17:51 10° NNE
CZ-2C R/B 2.6 13:11:40 10° SSE 13:17:11 90° W 13:22:36 10° NNW
Cosmos 1354 Rocket 4.1 13:12:37 10° SW 13:17:42 50° WNW 13:22:51 10° N
CBERS 1 LM4 rocket 4.4 13:13:08 10° N 13:18:04 68° WNW 13:23:10 10° SSW
Cosmos 1515 Rocket 4.4 13:15:23 10° N 13:19:37 50° E 13:23:48 10° SSE
FALCON 9 R/B 4.1 13:04:37 23° W 13:22:31 86° SSW 13:29:33 10° ESE
SL-19 R/B 4.3 13:20:01 10° S 13:25:30 57° WSW 13:30:59 10° NNW
Cosmos 2279 Rocket 4.0 13:22:47 10° NNW 13:28:53 61° W 13:34:58 10° S
Nadezhda 4 Rocket 4.0 13:25:41 10° S 13:31:50 90° W 13:38:05 10° N
Cosmos 1500 Rocket 3.9 13:28:05 10° S 13:32:30 69° E 13:36:57 10° NNE
SKYMED 2 3.6 13:28:19 10° S 13:32:35 58° W 13:36:52 10° NNW
Cosmos 921 Rocket 4.2 13:33:05 22° W 13:33:33 23° W 13:37:04 10° SSW
USA 215 4.3 13:30:51 10° ESE 13:36:45 38° NE 13:42:39 10° NNW
ADEOS 3.5 13:35:20 10° N 13:40:32 70° WNW 13:45:42 10° SSW
Meteor PRIRODA 3.6 13:38:09 10° NNE 13:41:47 81° ESE 13:45:24 10° S
CZ-4B R/B 2.8 13:40:30 10° NNE 13:44:04 75° ESE 13:47:43 10° S
Cosmos 1805 Rocket 4.5 13:40:31 10° S 13:44:46 51° E 13:49:01 10° NNE
H-2A R/B 3.7 13:41:59 10° SE 13:45:51 35° ENE 13:49:48 10° N
SL-27 R/B 2.6 13:43:16 10° NNW 13:46:49 76° ENE 13:50:18 10° SSE
Cosmos 1812 4.2 13:47:07 17° W 13:47:15 17° W 13:49:44 10° SW
Meteor 2-15 4.4 13:41:27 10° NNW 13:47:27 67° W 13:53:26 10° S
Cosmos 1340 Rocket 2.7 13:45:21 10° SSW 13:49:15 68° W 13:53:14 10° N
Cosmos 1151 Rocket 4.2 13:47:00 15° NW 13:49:25 22° W 13:52:47 10° SW
Cosmos 1092 Rocket 4.3 13:43:38 10° S 13:49:49 72° E 13:56:06 10° N
SMAP 4.1 13:46:26 10° NNE 13:50:57 50° E 13:55:27 10° S
NOAA 11 4.3 13:51:46 10° N 13:57:07 55° WNW 14:02:27 10° SSW
SL-8 R/B 4.0 13:54:54 11° NW 13:59:28 65° NE 14:04:11 10° ESE
FAST Rocket 4.0 13:57:18 10° SSW 13:59:53 50° W 14:02:36 10° N
OAO 2 Rocket 3.9 13:55:01 10° WSW 14:00:06 58° SSE 14:05:06 10° E
CZ-2C R/B 3.0 13:56:02 10° N 14:00:58 65° WNW 14:06:09 10° SSW
ATLAS 5 CENTAUR R/B 2.6 14:02:37 10° W 14:05:27 20° NW 14:08:29 10° N
CZ-4B R/B 3.7 14:03:38 10° SE 14:06:23 24° ENE 14:09:06 10° NNE
H-2A R/B 3.8 14:02:38 10° NNE 14:07:07 35° E 14:11:38 10° SSE
Cosmos 773 Rocket 4.2 14:08:22 10° NNW 14:13:23 50° WSW 14:18:19 10° S
USA 32 4.1 14:09:54 10° N 14:15:09 84° W 14:20:24 10° S
Cosmos 1939 Rocket 2.8 14:13:01 10° N 14:16:51 58° WNW 14:20:37 10° SSW
Meteor 1-27 Rocket 4.0 14:11:52 10° NNW 14:17:24 53° W 14:23:01 10° S
BREEZE-M DEB (TANK) 4.4 14:06:59 10° WSW 14:18:00 31° NW 14:21:42 10° NNE
BREEZE-M DEB (TANK) 4.3 14:12:35 10° NW 14:23:53 35° WSW 14:27:56 10° S
CZ-3 R/B 2.8 14:15:41 10° WSW 14:26:15 39° S 14:30:22 10° ESE
